User: anonymous   Login
Location: Unspecified
(0.0000°N, 0.0000°E)
Time: 01:58:33
(UTC+00:00)
Language:

Oscar 18 - Orbit

View from above orbital plane
View from above orbital plane
View from above satellite
View from above satellite

Ground track
Ground track

The orbit data is extracted from the following two-line orbital elements,

1 20441U 90005F   17147.80540406 +.00000025 +00000-0 +25352-4 0  9990
2 20441 098.5909 085.5864 0010739 212.2122 200.9563 14.32728136428344
Epoch (UTC): 27 May 2017 19:19:46
Eccentricity: 0.0010739
inclination: 98.5909°
perigee height: 775 km
apogee height: 790 km
right ascension of ascending node: 85.5864°
argument of perigee: 212.2122°
revolutions per day: 14.32728136
mean anomaly at epoch: 200.9563°
orbit number at epoch: 42834

The dashed part of the orbit path shows where the satellite is in the earth's shadow,  

DLR